Location: Springfield
(37.2150°N, 93.2980°W)
Time: 07:35:22
(UTC-05:00)

ATLAS 5 CENTAUR R/B - Pass Details

Date: 19 April 2018
Orbit: 600 x 1060 km, 63.4° (Epoch: 17 May)

Event Time Altitude Azimuth Distance (km) Brightness Sun altitude
Rises 23:24:28 0° 338° (NNW) 3,382 6.3 -35.1°
Reaches altitude 10° 23:27:23 10° 353° (N) 2,528 5.3 -35.4°
Enters shadow 23:31:11 22° 33° (NNE) 1,884 4.2 -35.8°
